When you browse on this site, cookies collect data to enhance your experience and personalize the content and advertising you see.
Visit our Privacy Policy to learn more. By continuing to use the site, you agree to this use of cookies and data.
  • In Sweden
  • List of Countries
  • For 7 days
  • Water Temperature
  • Weather Map
  • Weather Widgets
  • user-avatar
    Login

    Hourly Weather Southglenn

    Today, 13 December, Friday

    Time Temperature Precipitation Wind Pressure Humidity
    00:00 +1°C° 0 mm 3 mps 614 mmHg 60%
    01:00 +2°C° 0 mm 2 mps 614 mmHg 61%
    02:00 +2°C° 0 mm 2 mps 614 mmHg 63%
    03:00 +1°C° 0 mm 3 mps 613 mmHg 62%
    04:00 0°C° 0 mm 3 mps 613 mmHg 61%
    05:00 0°C° 0 mm 3 mps 613 mmHg 60%
    06:00 0°C° 0 mm 3 mps 613 mmHg 58%
    07:00 +1°C° 0 mm 3 mps 614 mmHg 56%
    08:00 +1°C° 0 mm 3 mps 614 mmHg 54%
    09:00 +1°C° 0 mm 4 mps 614 mmHg 47%
    10:00 +3°C° 0 mm 6 mps 615 mmHg 41%
    11:00 +4°C° 0 mm 7 mps 615 mmHg 34%
    12:00 +4°C° 0 mm 7 mps 614 mmHg 34%
    13:00 +4°C° 0 mm 6 mps 614 mmHg 34%
    14:00 +4°C° 0 mm 6 mps 613 mmHg 34%
    15:00 +3°C° 0 mm 5 mps 613 mmHg 37%
    16:00 +3°C° 0 mm 4 mps 614 mmHg 40%
    17:00 +1°C° 0 mm 3 mps 614 mmHg 43%
    18:00 +1°C° 0 mm 3 mps 614 mmHg 46%
    19:00 +1°C° 0 mm 2 mps 614 mmHg 49%
    20:00 +1°C° 0 mm 2 mps 614 mmHg 52%
    21:00 -1°C° 0 mm 2 mps 613 mmHg 53%
    22:00 -1°C° 0 mm 2 mps 613 mmHg 55%
    23:00 -1°C° 0 mm 2 mps 613 mmHg 56%

    Tomorrow, 14 December, Saturday

    Time Temperature Precipitation Wind Pressure Humidity
    00:00 -1°C° 0 mm 2 mps 612 mmHg 56%
    01:00 -1°C° 0 mm 2 mps 612 mmHg 56%
    02:00 -1°C° 0 mm 3 mps 611 mmHg 55%
    03:00 -1°C° 0 mm 3 mps 611 mmHg 55%
    04:00 -1°C° 0 mm 3 mps 610 mmHg 56%
    05:00 -1°C° 0 mm 3 mps 610 mmHg 56%
    06:00 -2°C° 0 mm 3 mps 610 mmHg 57%
    07:00 -2°C° 0 mm 3 mps 610 mmHg 57%
    08:00 -2°C° 0 mm 2 mps 609 mmHg 58%
    09:00 -1°C° 0 mm 3 mps 609 mmHg 56%
    10:00 0°C° 0 mm 3 mps 609 mmHg 54%
    11:00 +1°C° 0 mm 3 mps 608 mmHg 53%
    12:00 +2°C° 0 mm 3 mps 608 mmHg 52%
    13:00 +2°C° 0 mm 3 mps 607 mmHg 51%
    14:00 +3°C° 0 mm 3 mps 607 mmHg 50%
    15:00 +2°C° 0 mm 2 mps 607 mmHg 57%
    16:00 +1°C° 0 mm 2 mps 606 mmHg 64%
    17:00 0°C° 0 mm 1 mps 606 mmHg 71%
    18:00 0°C° 0.1 mm 1 mps 606 mmHg 76%
    19:00 0°C° 0.1 mm 1 mps 606 mmHg 80%
    20:00 0°C° 0.1 mm 1 mps 607 mmHg 85%
    21:00 0°C° 0.5 mm 1 mps 606 mmHg 87%
    22:00 0°C° 0.5 mm 1 mps 606 mmHg 90%
    23:00 0°C° 0.5 mm 1 mps 606 mmHg 92%

    Day after tomorrow, 15 December, Sunday

    Time Temperature Precipitation Wind Pressure Humidity
    00:00 0°C° 0.5 mm 1 mps 606 mmHg 93%
    01:00 -1°C° 0.5 mm 1 mps 606 mmHg 94%
    02:00 -1°C° 0.5 mm 1 mps 606 mmHg 94%
    03:00 -1°C° 0.8 mm 1 mps 606 mmHg 95%
    04:00 -1°C° 0.8 mm 1 mps 606 mmHg 95%
    05:00 -1°C° 0.8 mm 1 mps 606 mmHg 96%
    06:00 -4°C° 0.6 mm 2 mps 606 mmHg 96%
    07:00 -4°C° 0.6 mm 2 mps 606 mmHg 95%
    08:00 -5°C° 0.6 mm 3 mps 606 mmHg 95%
    09:00 -5°C° 0.4 mm 3 mps 606 mmHg 95%
    10:00 -5°C° 0.4 mm 3 mps 606 mmHg 94%
    11:00 -4°C° 0.4 mm 4 mps 607 mmHg 93%
    12:00 -4°C° 0.5 mm 4 mps 607 mmHg 94%
    13:00 -5°C° 0.5 mm 4 mps 607 mmHg 94%
    14:00 -5°C° 0.5 mm 4 mps 607 mmHg 94%
    15:00 -5°C° 0.6 mm 4 mps 608 mmHg 95%
    16:00 -5°C° 0.6 mm 3 mps 609 mmHg 95%
    17:00 -6°C° 0.6 mm 3 mps 610 mmHg 96%
    18:00 -6°C° 0.3 mm 3 mps 610 mmHg 95%
    19:00 -6°C° 0.3 mm 2 mps 611 mmHg 95%
    20:00 -7°C° 0.3 mm 2 mps 612 mmHg 94%
    21:00 -8°C° 0.1 mm 2 mps 612 mmHg 92%
    22:00 -8°C° 0.1 mm 1 mps 612 mmHg 91%
    23:00 -9°C° 0.1 mm 1 mps 612 mmHg 89%

    16 December, Monday

    Time Temperature Precipitation Wind Pressure Humidity
    00:00 -12°C° 0 mm 2 mps 613 mmHg 86%
    01:00 -12°C° 0 mm 2 mps 613 mmHg 83%
    02:00 -13°C° 0 mm 2 mps 613 mmHg 80%
    03:00 -14°C° 0 mm 3 mps 613 mmHg 77%
    04:00 -14°C° 0 mm 3 mps 614 mmHg 74%
    05:00 -15°C° 0 mm 3 mps 614 mmHg 71%
    06:00 -16°C° 0 mm 4 mps 615 mmHg 72%
    07:00 -15°C° 0 mm 4 mps 615 mmHg 72%
    08:00 -15°C° 0 mm 4 mps 616 mmHg 72%
    09:00 -12°C° 0 mm 3 mps 616 mmHg 68%
    10:00 -8°C° 0 mm 3 mps 617 mmHg 64%
    11:00 -6°C° 0 mm 3 mps 617 mmHg 60%
    12:00 -4°C° 0 mm 2 mps 617 mmHg 58%
    13:00 -4°C° 0 mm 2 mps 617 mmHg 56%
    14:00 -3°C° 0 mm 2 mps 617 mmHg 54%
    15:00 -5°C° 0 mm 2 mps 617 mmHg 58%
    16:00 -6°C° 0 mm 1 mps 617 mmHg 62%
    17:00 -8°C° 0 mm 1 mps 617 mmHg 66%
    18:00 -10°C° 0 mm 2 mps 617 mmHg 67%
    19:00 -12°C° 0 mm 2 mps 617 mmHg 69%
    20:00 -14°C° 0 mm 3 mps 618 mmHg 70%
    21:00 -14°C° 0 mm 3 mps 618 mmHg 71%
    22:00 -15°C° 0 mm 3 mps 618 mmHg 71%
    23:00 -16°C° 0 mm 4 mps 619 mmHg 71%

    17 December, Tuesday

    Time Temperature Precipitation Wind Pressure Humidity
    00:00 -15°C° 0 mm 3 mps 619 mmHg 71%
    01:00 -15°C° 0 mm 3 mps 619 mmHg 71%
    02:00 -16°C° 0 mm 3 mps 620 mmHg 71%
    03:00 -16°C° 0 mm 3 mps 620 mmHg 70%
    04:00 -16°C° 0 mm 3 mps 620 mmHg 70%
    05:00 -16°C° 0 mm 3 mps 620 mmHg 70%
    06:00 -16°C° 0 mm 3 mps 621 mmHg 70%
    07:00 -16°C° 0 mm 3 mps 621 mmHg 69%
    08:00 -17°C° 0 mm 4 mps 621 mmHg 69%
    09:00 -13°C° 0 mm 3 mps 621 mmHg 67%
    10:00 -8°C° 0 mm 2 mps 622 mmHg 65%
    11:00 -5°C° 0 mm 2 mps 622 mmHg 62%
    12:00 -2°C° 0 mm 1 mps 621 mmHg 62%
    13:00 -2°C° 0 mm 1 mps 621 mmHg 62%
    14:00 -1°C° 0 mm 1 mps 620 mmHg 62%
    15:00 -3°C° 0 mm 1 mps 620 mmHg 66%
    16:00 -4°C° 0 mm 1 mps 620 mmHg 71%
    17:00 -7°C° 0 mm 1 mps 620 mmHg 75%
    18:00 -8°C° 0 mm 1 mps 620 mmHg 74%
    19:00 -10°C° 0 mm 2 mps 620 mmHg 73%
    20:00 -10°C° 0 mm 2 mps 621 mmHg 71%
    21:00 -10°C° 0 mm 2 mps 620 mmHg 70%
    22:00 -13°C° 0 mm 3 mps 620 mmHg 69%
    23:00 -13°C° 0 mm 3 mps 620 mmHg 68%

    18 December, Wednesday

    Time Temperature Precipitation Wind Pressure Humidity
    00:00 -13°C° 0 mm 3 mps 620 mmHg 66%
    01:00 -13°C° 0 mm 3 mps 619 mmHg 64%
    02:00 -13°C° 0 mm 3 mps 619 mmHg 62%
    03:00 -14°C° 0 mm 4 mps 619 mmHg 60%
    04:00 -14°C° 0 mm 4 mps 618 mmHg 58%
    05:00 -14°C° 0 mm 4 mps 617 mmHg 57%
    06:00 -12°C° 0 mm 4 mps 617 mmHg 57%
    07:00 -11°C° 0 mm 4 mps 617 mmHg 58%
    08:00 -10°C° 0 mm 3 mps 617 mmHg 59%
    09:00 -7°C° 0 mm 3 mps 617 mmHg 61%
    10:00 -3°C° 0 mm 2 mps 617 mmHg 64%
    11:00 +1°C° 0 mm 2 mps 617 mmHg 67%
    12:00 +2°C° 0 mm 1 mps 616 mmHg 70%
    13:00 +3°C° 0 mm 1 mps 615 mmHg 74%
    14:00 +4°C° 0 mm 1 mps 615 mmHg 78%
    15:00 +2°C° 0 mm 1 mps 615 mmHg 74%
    16:00 -1°C° 0 mm 2 mps 615 mmHg 70%
    17:00 -2°C° 0 mm 2 mps 615 mmHg 66%
    18:00 -3°C° 0 mm 2 mps 615 mmHg 66%
    19:00 -4°C° 0 mm 3 mps 615 mmHg 66%
    20:00 -5°C° 0 mm 3 mps 615 mmHg 66%
    21:00 -5°C° 0 mm 3 mps 615 mmHg 66%
    22:00 -5°C° 0 mm 3 mps 615 mmHg 65%
    23:00 -5°C° 0 mm 3 mps 615 mmHg 64%
    Show more